星链-5465 (STARLINK-5465 )

导读

STARLINK-5465是美国太空探索技术公司(SpaceX)在2022年12月17日发射的星链(Starlink)低轨通信卫星,隶属于第二代星链组网卫星。该卫星旨在为全球提供高速低延迟互联网接入服务,尤其是覆盖偏远地区与网络基础设施匮乏区域,是SpaceX构建全球卫星互联网星座计划的组成部分。

基本信息
目录编号:
54775
目录名称:
STARLINK-5465
国际标识:
2022-175T
轨道中心:
EARTH
卫星名称:
星链-5465
卫星全名:
星链-5465 (STARLINK-5465 )
卫星状态:
在轨 (已飞行1357 天)
发射日期:
2022-12-17 UTC
国别 :
美国 (US)
星等 :
--
轨道信息
数据来源 国际轨道数据
星历时间: 2026-09-01T20:10:58+0800
2天前
查看轨道信息
半长轴: 6840.843km
偏心率: 0.0001223
轨道倾角: 53.159°
近地点辐角 81.877°
升交点赤经 326.437°
平近点角 278.238°
近地点: 461.869km
远地点: 463.543km
周期: 93.848分钟
每日圈数: 15.343994
详细信息
固有亮度:
5
最大亮度:
2.5
卫星平台:
Starlink v1.5
覆盖范围:
全球
运营商:
太空探索技术公司
运营商所在国:
美国
制造商(研发单位):
太空探索技术公司
制造商所在国:
美国
使用方式:
暂无
卫星简介
星链(Starlink)计划是由太空探索技术公司(SpaceX)提出的一个巨型低轨卫星互联网星座项目,计划在2019年至2024年间在太空搭建由约1.2万颗卫星组成的“星链”网络,其中1584颗将部署在地球上空550千米处的近地轨道,并从2020年开始工作。该卫星仍在工作。
2D轨道图
3D轨道图
轨道高度分析图
轨道倾角分析图
轨道综合分析图
查看轨道综合分析图
交会数据列表
事件ID 空间交会对象 最接近时刻(TCA) 交会距离 交会风险概率(CRP) 交会风险指数(CRI) 操作
CDM_260902-134505-477506-539321
2026-09-02T
13:45:37+0000
2.469 km
极远距离
1.764734E-6 低风险 0.4
CDM_260903-213005-477506-925321
2026-09-03T
21:30:26+0000
2.975 km
极远距离
9.676901E-7 极低风险 0.35